星链-30381 (STARLINK-30381 )

导读

STARLINK-30381是美国SpaceX公司星链(Starlink)星座中的一颗卫星,于2023年9月4日由猎鹰九号火箭,在美国佛罗里达州卡纳维拉尔角太空军基地发射升空。它属于第二代星链V2.0 Mini卫星,配备氩气霍尔推进与激光星间链路,可提供高速卫星互联网服务,助力全球偏远地区网络覆盖,是星链低轨通信星座组网的重要组成部分,设计服役寿命超5年。

Basic Information
目录编号:
57785
目录名称:
STARLINK-30381
国际标识:
2023-134Q
轨道中心:
EARTH
卫星名称:
星链-30381
卫星全名:
星链-30381 (STARLINK-30381 )
卫星状态:
在轨 (已飞行1103 天)
发射日期:
2023-09-04 UTC
国别 :
美国 (US)
星等 :
--
This satellite is enrolled in the Space Conjunction Data Service (SCDS) and the current flight risk assessment level is: High Risk
Orbit Information
数据来源 国际轨道数据
星历时间: 2026-09-11T07:26:05+0800
18小时前
查看轨道信息
半长轴: 6861.205km
偏心率: 0.0001291
轨道倾角: 43.004°
近地点辐角 260.965°
升交点赤经 228.023°
平近点角 99.106°
近地点: 482.182km
远地点: 483.954km
周期: 94.267分钟
每日圈数: 15.275739
Detailed Information
固有亮度:
5
最大亮度:
0.3
卫星平台:
Starlink v2.0 mini
覆盖范围:
全球
运营商:
太空探索技术公司
运营商所在国:
美国
制造商(研发单位):
太空探索技术公司
制造商所在国:
美国
使用方式:
暂无
Satellite Introduction
星链(Starlink)计划是由太空探索技术公司(SpaceX)提出的一个巨型低轨卫星互联网星座项目,计划在2019年至2024年间在太空搭建由约1.2万颗卫星组成的“星链”网络,其中1584颗将部署在地球上空550千米处的近地轨道,并从2020年开始工作。该卫星仍在工作。
2D Orbit Map
3D Orbit Map
Orbit Altitude Analysis Chart
Orbit Inclination Analysis Chart
Orbit Comprehensive Analysis Chart
View Comprehensive Chart
Conjunction Data List
Event ID Objects TCA Miss Dist (km) Collision Risk Probability Collision Risk Index (CRI) Action
CDM_260912-075705-778506-713021
2026-09-12T
07:57:21+0000
0.391 km
远距离
1.281427E-4 高风险 0.77
CDM_260913-214305-778506-327921
2026-09-13T
21:43:51+0000
0.989 km
远距离
1.107222E-5 中风险 0.56
CDM_260913-231905-778506-220521
2026-09-13T
23:19:57+0000
1.091 km
极远距离
9.846184E-6 低风险 0.55
CDM_260912-093304-380405-778522
SUOMI100 (43804)
2026-09-12T
09:33:42+0000
1.555 km
极远距离
5.06169E-6 低风险 0.49
CDM_260912-053605-778506-713021
2026-09-12T
05:36:07+0000
1.425 km
极远距离
2.36906E-6 低风险 0.42
CDM_260913-200905-778506-327921
2026-09-13T
20:09:42+0000
2.498 km
极远距离
8.161294E-7 极低风险 0.33
CDM_260914-000505-778506-327921
2026-09-14T
00:05:05+0000
2.675 km
极远距离
7.373087E-7 极低风险 0.32
Miss Distance Evolution Trend with All Objects
Collision Probability Evolution Trend with All Objects